GFSGBSN_850_thetae_114.txt.gz
Theta_e
307 307 308 309 309 309 309 309 309 310 310 311 310 310 310 310 310 309 319 320 321 322 322 322 321 321 321 320 319 320 319 316 317 315 313 315 316 316 318 318 319 320 319 319 318 318 318
307 306 306 307 307 307 306 306 306 306 307 306 306 306 306 307 307 308 311 314 319 319 320 320 320 320 315 317 319 318 312 314 316 313 314 315 315 316 316 317 317 318 318 318 318 317 317
302 303 302 302 301 300 300 300 300 300 300 300 301 302 303 303 304 305 307 311 316 314 318 318 318 318 311 316 318 320 314 312 313 314 315 314 315 314 314 316 316 317 317 317 318 318 319
299 299 299 299 299 299 299 299 299 299 299 300 300 301 302 302 303 304 306 306 312 317 314 315 316 315 312 317 318 318 319 319 313 312 313 314 314 314 314 314 315 316 317 319 318 319 319
299 298 298 298 298 298 298 298 298 299 299 299 300 300 301 302 303 305 306 308 311 316 314 315 314 313 314 315 317 318 315 315 315 314 312 313 313 313 314 315 316 317 319 320 320 320 321
300 299 298 298 298 297 297 297 297 298 298 298 298 298 299 301 304 307 308 314 312 314 313 313 309 310 313 316 317 315 312 312 313 312 312 312 312 313 315 316 319 319 319 319 320 321 321
304 302 300 299 297 297 297 297 297 298 298 298 298 297 298 300 304 306 310 313 312 312 310 314 313 314 316 317 314 314 314 312 311 312 312 313 314 316 316 317 317 317 317 318 318 318 319
305 304 303 301 298 297 297 297 297 297 297 297 297 297 300 301 304 308 311 312 313 314 314 314 314 314 314 314 315 315 316 314 314 314 314 313 316 316 316 316 316 317 317 317 317 317 317
304 303 303 302 300 298 299 298 297 296 296 296 296 297 300 302 306 308 313 312 313 311 314 314 312 314 314 315 314 315 314 316 316 316 316 316 316 316 315 315 314 315 315 317 316 315 316
302 302 301 299 300 300 300 299 298 298 297 296 296 299 302 304 307 309 311 313 313 312 315 312 313 314 314 313 315 315 315 315 316 317 317 316 315 314 316 316 316 315 316 316 315 315 317
301 299 299 299 299 298 300 300 298 298 297 297 297 301 304 306 309 310 310 312 311 310 315 311 312 312 313 315 315 314 314 315 316 316 316 317 316 315 317 317 317 316 316 316 315 315 316
300 301 300 299 299 300 299 299 299 300 299 297 298 302 305 310 310 310 311 311 311 314 316 311 313 313 314 313 314 314 313 312 314 315 315 316 316 316 316 317 316 313 312 315 316 314 315
300 302 302 301 299 298 299 300 300 301 300 298 299 304 307 312 310 310 311 310 313 315 312 311 312 314 312 313 314 314 314 313 313 316 317 316 315 315 316 315 313 312 312 313 317 315 316
299 300 301 301 299 298 298 300 301 301 300 299 302 307 310 313 311 311 311 310 316 312 313 312 312 313 314 313 314 314 313 313 313 314 315 314 316 314 315 315 313 312 312 315 315 315 315
298 299 300 300 299 299 298 299 300 301 300 301 305 311 314 314 311 309 310 312 313 312 312 312 312 313 312 313 313 313 312 312 313 313 313 315 314 313 313 314 312 312 313 313 314 314 315
298 298 298 299 300 299 299 299 299 300 300 301 305 311 311 310 310 309 310 312 313 312 312 313 313 314 314 313 313 314 312 313 312 313 313 313 313 314 313 309 309 309 309 312 315 318 315
296 297 297 297 299 299 298 298 299 300 300 302 309 309 307 309 306 306 310 313 313 312 312 315 314 314 315 314 314 316 314 312 312 312 312 312 313 314 312 310 310 309 309 309 310 309 315
294 295 295 295 296 298 298 297 299 301 302 308 309 305 304 305 303 302 308 311 312 313 313 314 313 313 314 314 313 313 314 313 311 312 311 310 312 314 312 310 308 308 310 310 311 309 310
293 293 293 293 294 295 297 296 301 301 306 308 304 300 302 302 306 307 307 311 311 313 313 313 311 310 311 312 312 312 310 308 308 311 312 310 311 311 310 311 308 307 308 308 309 310 309
294 293 293 293 293 294 296 296 301 301 303 304 302 301 299 300 302 308 308 310 311 310 312 310 310 310 310 310 311 310 309 307 307 308 306 308 309 311 312 309 307 308 307 306 308 310 308
293 293 293 293 293 294 296 296 299 301 301 301 301 302 303 302 301 306 308 309 311 312 309 309 310 310 310 310 312 311 310 307 306 305 305 306 307 308 307 307 306 305 305 306 306 307 308
293 293 294 294 294 294 295 296 301 301 301 301 301 304 303 306 303 305 308 310 311 310 309 310 309 309 308 310 311 311 309 309 308 307 307 307 307 305 305 305 304 304 304 304 304 304 305
294 294 294 294 294 295 295 296 300 301 301 299 300 303 305 305 305 306 308 309 310 308 306 307 307 308 309 309 308 307 308 307 307 308 308 307 306 305 304 303 302 302 303 303 303 304 304
293 294 294 294 295 295 295 297 299 302 301 300 301 302 304 307 305 308 307 307 309 307 307 306 306 308 305 304 303 304 304 304 305 305 306 305 305 304 304 302 302 302 305 305 304 304 305
292 292 292 294 296 296 296 297 300 300 300 299 301 302 304 309 305 305 305 307 307 307 306 306 304 305 303 303 302 301 301 301 302 303 303 304 304 304 303 302 303 303 304 303 302 302 303
296 296 296 296 296 296 298 299 299 300 299 299 300 301 302 307 306 305 307 307 308 307 305 303 303 303 302 306 303 301 302 302 302 301 301 302 302 304 302 302 303 305 302 301 301 302 299
296 297 296 298 298 298 299 299 300 299 299 299 301 301 302 305 306 306 307 308 306 305 305 303 302 302 302 305 305 303 303 304 305 304 303 303 303 302 304 304 306 301 300 300 303 301 296
296 297 298 298 298 298 299 298 298 299 299 299 302 301 302 303 303 305 305 306 305 304 304 302 301 301 302 305 305 306 308 304 307 307 305 304 304 305 305 306 306 298 300 301 298 295 295
297 297 297 297 297 296 296 298 298 298 299 300 300 300 302 301 301 301 301 301 302 302 303 301 304 302 304 306 307 307 307 307 307 306 305 306 306 307 303 303 297 296 295 295 295 295 293

GFSGBSN_850_thetae_117.txt.gz
Theta_e
308 308 308 308 309 310 310 310 310 310 309 309 309 309 308 308 307 307 307 308 316 318 318 316 316 318 319 319 319 316 320 320 316 316 317 314 314 315 315 315 316 315 316 317 317 317 317
305 305 306 306 306 307 307 307 307 307 306 306 306 305 305 305 305 305 305 306 307 312 316 312 314 316 317 313 312 320 320 315 315 316 316 314 314 315 315 315 314 316 316 315 316 316 317
303 301 302 303 303 303 303 302 302 301 300 300 300 300 301 301 302 302 303 303 306 306 314 314 313 313 314 314 309 310 316 317 312 313 315 315 315 314 315 313 314 314 313 313 314 316 315
303 300 300 299 299 299 299 299 299 299 299 299 299 300 300 301 302 303 303 303 305 308 311 314 313 314 312 309 313 314 316 317 320 314 314 313 314 314 314 314 313 313 313 314 314 315 317
300 300 299 299 298 298 298 298 298 298 298 298 299 299 299 299 300 302 303 304 308 310 311 315 311 312 311 314 314 316 318 318 317 318 316 313 313 314 313 312 312 312 312 314 315 316 317
303 303 302 300 298 298 298 298 298 298 298 298 298 298 298 298 300 301 304 305 310 312 311 312 311 308 309 314 315 317 313 312 315 314 314 313 312 309 309 311 314 314 314 314 314 314 315
305 305 304 304 301 299 298 299 302 299 299 299 298 297 297 298 302 301 306 310 309 311 310 311 310 310 311 315 314 317 313 313 312 313 311 312 310 310 309 311 313 314 315 315 315 315 315
305 306 305 304 303 301 299 300 300 299 298 298 297 296 297 299 302 303 310 309 311 312 312 313 313 313 314 312 313 314 315 314 312 310 311 310 311 312 313 314 315 315 315 314 313 314 314
303 304 305 304 303 302 300 298 299 299 299 299 298 297 298 300 303 305 308 309 310 311 311 311 311 313 313 314 314 314 313 314 314 313 313 312 313 313 313 314 315 315 314 313 313 313 313
302 301 303 303 303 302 299 301 300 300 300 300 299 298 299 303 303 305 307 307 311 312 309 312 312 313 313 314 314 314 314 314 314 315 315 315 314 315 314 314 313 313 315 316 316 316 315
301 301 301 302 300 298 298 298 298 299 299 300 300 299 300 303 308 308 307 309 311 312 307 309 312 313 315 314 314 314 314 315 315 315 314 315 315 315 316 316 314 314 316 312 312 314 315
300 302 302 301 300 300 299 300 300 299 300 300 301 299 302 302 305 307 308 310 311 311 312 312 312 314 313 314 315 314 314 315 315 314 314 314 314 314 315 315 315 316 314 311 310 313 315
300 299 299 300 302 302 301 299 298 299 300 301 300 300 301 303 307 307 308 311 311 311 310 309 311 313 313 313 313 313 313 313 311 311 312 313 314 314 315 315 314 315 312 313 312 313 313
299 299 300 299 300 302 302 299 299 298 299 301 300 300 301 303 306 308 309 309 312 310 308 310 311 311 312 312 312 312 312 312 312 311 311 312 313 314 313 314 315 314 311 313 316 315 314
299 299 298 299 299 301 301 300 299 299 299 300 300 301 304 306 307 309 309 309 309 309 309 310 310 310 310 311 312 311 312 312 311 310 312 312 314 312 312 312 313 312 311 311 313 313 313
298 298 297 298 299 299 300 300 300 299 298 299 301 301 305 309 310 309 308 309 309 309 309 310 311 312 312 312 312 311 311 312 311 311 310 312 313 313 313 309 309 310 309 313 312 316 315
298 297 296 296 298 298 298 299 299 299 298 298 301 304 306 308 309 308 310 310 310 310 310 312 312 311 314 313 314 314 315 314 313 311 309 312 311 313 312 311 308 308 308 308 313 311 313
296 296 296 295 295 296 297 297 298 298 297 299 304 303 304 308 305 302 307 309 310 310 311 310 312 313 314 313 313 314 315 314 309 310 310 308 311 313 313 311 310 308 310 309 308 308 308
295 294 294 293 294 294 295 295 295 297 297 302 303 303 304 305 307 305 307 308 309 310 312 312 313 313 313 311 311 312 311 309 309 311 310 309 308 310 311 311 311 311 308 309 309 309 309
293 293 293 293 293 293 293 293 294 296 297 300 300 300 300 301 304 306 307 308 309 310 310 311 313 311 310 310 311 310 310 308 307 307 308 309 308 309 311 311 309 307 308 307 307 306 307
293 293 293 293 294 294 293 293 293 296 296 301 300 301 301 300 302 304 307 308 308 309 310 311 312 310 310 310 310 311 310 306 306 306 306 306 306 308 308 308 308 308 307 306 307 306 307
293 293 293 293 293 293 293 293 293 296 297 301 300 301 302 304 303 303 305 309 308 309 310 311 309 310 310 311 311 312 310 308 308 306 305 305 306 304 305 305 305 305 304 303 304 304 304
293 293 293 293 293 293 294 293 293 295 297 300 300 301 303 304 304 303 304 307 308 309 310 310 309 310 310 309 309 308 306 308 308 306 305 306 305 304 304 303 302 301 302 304 303 306 305
293 293 293 293 293 294 294 294 294 296 297 300 300 301 301 304 305 303 304 305 308 309 309 307 309 307 307 307 305 306 304 304 305 307 306 305 304 303 304 302 302 305 304 303 303 303 304
292 293 293 293 294 294 294 294 294 296 297 299 300 301 302 304 304 305 305 306 307 309 307 307 307 307 306 305 303 301 300 301 302 303 304 304 303 302 302 302 303 303 301 299 299 301 299
292 293 293 294 294 294 293 294 295 296 297 299 300 300 302 304 304 305 306 306 305 304 305 304 305 306 304 303 301 301 302 302 299 301 302 303 301 300 301 301 296 302 301 301 300 297 296
293 293 294 295 295 295 294 295 297 296 296 299 300 300 301 302 304 305 305 305 306 304 303 303 302 302 302 301 303 302 302 303 302 303 301 301 300 301 300 299 302 300 299 300 299 295 295
296 297 297 297 296 296 296 297 297 298 299 299 300 301 301 301 301 305 306 305 306 304 302 302 300 300 301 303 302 302 302 303 304 304 303 302 302 299 298 299 302 296 299 300 296 294 294
297 296 296 297 298 297 297 297 298 298 299 300 299 300 301 300 300 302 303 303 304 304 303 301 302 301 302 300 301 301 301 301 302 303 304 302 299 304 299 297 296 295 295 294 295 293 293

GFSGBSN_850_thetae_120.txt.gz
Theta_e
309 309 309 308 309 309 310 311 311 310 309 309 309 308 308 308 307 307 306 306 306 306 306 308 309 312 311 314 312 309 313 316 319 314 315 316 314 314 314 313 314 313 314 315 315 315 315
307 307 306 306 306 307 307 307 308 307 307 306 306 305 305 305 304 304 303 303 303 304 304 305 310 312 313 310 308 317 320 319 318 313 315 314 314 314 314 314 313 314 313 313 314 314 314
306 305 303 302 303 304 304 304 304 303 302 301 300 300 300 301 301 301 302 302 302 303 304 306 311 313 311 309 306 308 309 315 314 312 312 314 314 314 313 313 314 313 312 312 312 314 313
305 303 301 301 300 300 300 300 299 299 299 299 299 299 300 300 300 301 301 302 302 303 304 305 312 312 310 306 311 314 313 312 315 317 316 313 314 313 314 313 313 312 311 312 313 314 315
303 302 300 299 299 299 299 299 299 298 298 299 299 299 299 299 298 299 299 300 302 304 307 308 311 311 308 311 313 314 317 317 315 317 318 318 315 312 313 311 310 311 311 312 313 314 314
302 302 301 300 299 298 298 298 298 299 299 299 298 298 298 298 298 298 300 300 303 309 310 310 310 307 309 313 314 316 313 312 317 316 315 317 313 309 308 310 312 312 312 311 312 311 312
305 305 304 304 304 301 299 298 301 302 300 300 299 298 297 297 297 299 301 303 307 309 309 309 308 309 309 311 315 315 316 312 313 314 312 312 309 308 310 309 311 312 312 313 312 312 312
305 305 305 305 304 304 302 300 304 303 301 298 298 298 296 297 299 300 305 306 311 310 310 309 308 310 306 310 311 308 312 313 311 310 310 310 309 309 309 310 310 311 313 314 314 313 313
303 304 304 305 305 304 303 301 300 302 300 299 299 298 297 300 300 301 301 302 308 309 310 310 309 310 310 309 311 311 311 313 313 310 309 309 310 311 311 311 312 313 313 313 313 313 313
302 302 302 303 304 304 303 302 300 301 301 300 300 300 298 300 300 303 303 302 308 310 309 308 312 310 311 313 314 313 312 311 312 313 313 312 312 312 313 314 313 313 312 313 314 311 312
303 303 302 301 301 302 302 300 299 299 299 299 300 300 299 300 305 306 303 308 310 310 296 306 311 312 313 313 313 313 313 313 313 313 313 314 313 313 314 314 314 315 315 315 313 311 310
302 302 301 301 301 301 301 299 300 301 300 299 300 300 300 301 303 304 308 311 311 300 300 309 312 312 313 313 314 314 314 314 314 312 312 313 314 313 313 313 313 314 313 310 309 309 313
301 301 300 300 301 301 301 301 300 299 298 299 300 300 300 301 304 304 309 310 309 304 306 308 311 313 314 314 313 313 313 312 312 314 314 313 313 311 312 313 313 314 314 317 312 311 312
300 299 300 300 299 299 299 302 302 300 299 299 300 301 300 300 301 305 309 310 307 306 307 308 308 307 311 312 312 313 311 311 309 309 309 311 311 311 312 313 313 314 315 315 316 314 311
299 299 299 300 300 299 299 300 302 301 299 299 299 300 300 299 300 306 309 309 305 307 308 308 308 308 307 308 309 310 311 311 311 310 311 310 311 311 310 311 312 312 311 311 313 312 312
299 299 300 300 299 298 299 300 301 301 300 299 299 300 300 301 306 307 307 308 306 307 308 308 310 310 311 311 311 310 309 311 312 310 309 310 311 312 312 309 309 311 309 311 311 316 315
299 299 299 299 299 297 298 299 299 300 300 299 299 300 301 304 306 306 307 305 306 307 308 310 309 310 311 312 312 312 313 313 311 311 309 310 310 311 311 309 308 307 307 307 312 312 313
298 298 298 298 298 297 297 298 298 299 299 298 299 301 301 304 305 305 306 306 307 308 307 307 308 309 310 312 312 312 314 314 310 310 310 309 309 310 311 310 307 307 307 308 311 310 308
295 296 297 297 297 297 296 295 296 296 297 298 300 300 302 305 305 305 306 306 307 308 309 310 310 311 310 311 310 310 312 310 311 310 310 308 308 310 309 309 309 310 308 308 309 309 309
295 295 295 295 295 295 295 294 294 295 295 297 299 300 301 303 303 304 304 306 308 308 308 309 310 311 311 311 310 310 308 307 307 307 310 309 308 308 309 310 308 307 309 307 308 310 309
294 295 295 295 294 294 293 293 294 294 295 297 299 300 300 300 301 303 306 306 306 307 308 309 309 309 310 309 309 309 307 305 306 306 305 305 307 308 308 308 310 310 310 309 307 307 307
293 294 294 293 293 293 294 294 294 293 294 297 298 300 301 301 301 302 304 306 306 307 307 309 309 309 309 310 308 310 307 305 306 306 304 304 305 304 304 305 305 307 306 304 303 304 305
293 293 293 293 293 293 293 293 293 294 294 297 298 299 301 302 302 303 303 304 306 307 307 307 307 309 309 309 309 309 309 307 308 306 304 304 304 303 304 303 301 302 302 302 303 305 305
292 293 293 293 293 292 293 293 293 293 294 295 298 299 300 302 303 304 303 303 304 305 307 309 308 309 308 308 306 306 306 304 308 307 305 304 304 303 305 302 304 303 303 303 303 301 302
292 292 292 293 293 293 293 293 293 294 294 294 297 299 300 301 302 303 303 303 303 304 306 307 308 308 307 305 303 303 302 302 302 305 305 304 302 301 301 302 302 303 300 298 298 300 297
292 292 292 293 292 293 293 294 294 294 294 294 296 297 299 302 301 303 304 304 303 303 305 305 307 307 306 302 303 304 304 303 302 302 303 302 301 299 299 301 295 294 300 300 297 297 296
291 292 292 291 291 292 293 294 294 294 294 295 297 297 298 300 301 304 304 304 305 304 305 303 304 305 304 300 303 303 303 303 301 301 301 301 300 300 299 298 300 299 298 299 299 296 295
292 292 292 292 292 293 293 294 293 293 294 296 298 298 298 300 301 302 303 304 305 303 303 302 302 301 301 303 303 302 303 303 303 302 301 300 301 297 296 295 298 296 298 300 295 294 294
294 294 294 295 294 293 294 294 293 292 295 296 296 296 299 300 300 301 303 305 304 304 302 301 301 300 302 302 302 302 302 297 302 304 303 300 298 297 299 295 294 295 295 295 295 294 293

GFSGBSN_850_thetae_123.txt.gz
Theta_e
315 315 313 312 310 310 310 311 314 315 313 311 310 310 309 309 308 307 307 306 305 305 304 304 304 304 306 309 307 307 312 315 311 317 314 316 315 313 313 312 313 311 312 313 313 313 313
309 308 308 308 307 307 307 307 307 308 308 307 307 306 306 305 305 304 303 302 302 302 303 303 304 303 308 309 307 314 317 318 319 316 313 315 313 314 314 313 312 312 312 312 313 314 314
308 308 307 306 305 305 305 305 305 306 305 305 303 302 301 301 301 301 301 301 302 302 302 303 305 308 308 306 306 306 306 308 318 315 313 313 314 312 313 312 313 313 312 311 312 315 313
309 308 307 305 304 302 301 301 301 301 301 300 300 299 299 300 300 300 300 301 301 301 302 304 305 309 307 306 307 312 314 313 310 316 314 314 313 313 312 313 312 311 311 313 312 313 314
307 307 306 304 303 302 300 299 299 299 299 299 299 299 299 299 299 299 299 299 299 300 302 307 306 308 307 308 313 315 314 315 316 312 314 317 314 313 312 311 310 310 312 311 312 312 312
305 305 303 301 300 301 300 299 299 299 299 299 299 298 298 298 298 298 298 299 300 301 308 307 309 306 307 307 314 316 314 313 317 316 316 316 313 308 307 309 313 312 311 310 313 311 311
305 304 304 304 304 302 301 298 299 303 302 300 299 298 298 298 298 298 298 300 304 307 308 306 307 308 308 312 313 314 315 314 315 315 312 312 310 309 310 308 310 310 311 311 310 310 311
305 305 305 305 305 304 304 301 304 305 305 303 299 298 297 297 297 297 298 300 308 309 308 306 304 308 304 308 309 307 310 314 313 311 310 310 309 309 308 309 309 309 310 310 310 311 311
304 304 306 305 305 305 304 303 300 302 303 300 298 298 298 297 296 297 298 299 308 309 308 308 308 308 307 307 309 307 307 312 311 310 309 310 311 310 310 310 310 310 311 311 312 311 311
302 303 303 303 303 305 304 304 303 301 301 302 299 299 299 298 298 298 301 302 305 308 307 305 310 310 310 311 311 310 308 311 312 312 311 310 309 309 309 310 310 311 310 311 313 313 315
302 302 302 302 302 303 304 304 303 302 302 301 300 299 300 298 302 301 304 305 309 308 296 304 311 311 312 313 312 313 312 311 310 312 311 312 313 312 312 312 312 313 313 313 313 312 310
302 302 303 303 302 301 301 302 302 299 299 300 298 300 300 299 301 301 308 309 309 297 297 304 312 312 313 313 312 313 313 313 311 312 311 311 312 312 312 312 311 313 313 312 309 309 315
303 302 302 303 302 301 301 301 300 300 301 300 299 300 300 300 299 303 308 310 307 299 303 305 311 312 312 312 312 313 312 313 312 314 313 312 312 311 312 312 311 311 313 318 314 311 312
300 302 302 302 301 300 300 301 301 301 300 299 299 300 301 300 302 305 308 308 305 302 303 306 306 308 313 312 312 313 311 311 310 310 308 311 311 309 310 310 311 312 312 313 316 314 310
300 301 301 301 299 300 301 299 299 301 302 300 299 300 301 301 301 305 308 308 304 305 306 306 306 305 304 307 309 311 311 311 309 309 311 309 310 310 310 311 311 312 313 311 312 310 312
301 301 301 300 299 299 300 299 299 300 302 300 299 299 299 299 299 303 306 305 306 306 306 307 307 307 308 308 310 308 308 310 311 308 309 309 310 311 311 308 308 310 309 310 309 314 315
299 299 299 299 299 300 300 299 299 300 301 300 300 298 299 299 304 304 304 303 305 305 306 308 308 307 309 311 311 311 311 311 311 310 307 307 308 310 310 309 308 306 307 308 310 309 312
298 299 299 299 299 300 300 299 298 300 301 300 298 299 300 301 304 303 304 303 304 304 306 305 306 306 307 308 309 311 312 312 310 309 311 310 310 311 311 309 306 306 306 307 309 310 308
296 297 298 299 299 299 299 298 299 299 300 299 298 298 301 303 303 304 303 304 304 305 305 307 309 307 308 308 308 309 310 310 311 309 308 308 307 311 312 308 308 309 308 307 308 307 309
294 295 296 297 298 298 298 298 297 298 298 298 299 299 299 302 302 302 303 304 305 305 305 306 308 309 310 310 309 310 308 307 308 308 309 309 306 308 310 309 308 309 309 308 308 309 309
294 294 295 296 296 296 297 297 296 296 296 297 298 299 299 301 300 302 303 302 303 305 306 307 306 306 307 309 308 308 308 306 305 307 307 306 308 307 308 308 309 310 310 310 309 308 309
292 294 294 295 295 295 296 296 296 294 295 296 297 297 299 300 300 299 302 304 303 304 304 306 307 307 307 308 307 307 307 304 306 305 304 304 306 304 305 305 306 308 308 307 308 308 306
293 293 294 294 295 295 295 295 295 294 294 297 296 297 299 299 301 300 300 301 303 304 305 305 305 306 307 307 308 308 308 307 306 306 304 304 305 305 308 304 302 302 304 305 305 304 304
292 293 293 294 294 294 294 294 294 294 294 294 296 297 297 298 300 301 301 300 301 302 303 305 305 305 306 306 307 307 306 304 305 307 305 304 305 305 307 302 304 303 301 302 303 301 302
291 292 293 293 293 293 293 293 293 293 294 294 295 296 297 297 298 299 301 303 301 301 303 303 305 306 307 307 305 305 304 304 304 308 308 305 304 305 304 303 302 302 300 297 298 300 297
291 291 292 292 293 293 293 293 293 293 293 294 294 295 297 297 297 299 302 301 303 303 302 303 303 304 306 301 304 306 306 306 304 304 307 303 304 302 299 301 296 295 300 299 296 297 295
292 291 292 292 292 292 293 293 293 293 293 294 294 293 295 297 298 300 300 301 303 303 303 304 305 306 304 303 304 304 304 303 305 304 304 304 301 304 300 299 300 299 298 299 298 296 295
291 292 292 292 292 292 292 293 293 294 294 294 294 294 294 296 297 299 301 302 303 304 303 303 304 303 301 304 303 302 300 302 302 301 303 304 303 301 297 297 301 297 298 299 294 294 294
291 290 290 291 291 291 291 291 292 293 294 294 295 295 294 296 297 299 299 300 302 304 303 302 302 300 301 302 301 301 301 296 301 302 301 299 298 297 299 298 294 295 295 295 295 295 292

GFSGBSN_850_thetae_129.txt.gz
Theta_e
321 323 323 323 323 323 322 322 319 316 315 315 316 318 317 315 312 310 308 307 306 304 304 303 303 304 304 305 305 306 307 311 312 314 313 314 315 313 314 313 313 313 312 312 312 313 313
316 315 316 316 316 315 314 312 310 310 311 309 310 311 310 309 308 306 305 303 302 302 302 303 303 303 303 303 305 306 307 309 310 314 314 314 312 313 313 312 313 311 312 312 312 314 313
309 309 309 309 309 309 308 307 307 307 306 306 307 307 306 305 304 303 302 301 301 301 302 302 302 302 303 304 305 305 305 306 309 310 315 313 313 312 312 313 312 312 314 314 314 313 313
311 310 309 308 308 307 307 305 304 304 304 304 305 304 303 301 301 300 300 300 300 300 301 301 301 301 302 304 304 305 307 306 309 312 311 312 313 313 313 312 312 314 312 317 314 312 311
310 310 309 308 307 307 306 305 304 302 301 303 302 301 300 300 299 299 299 299 299 300 300 300 301 302 303 306 309 313 314 314 314 314 310 313 314 313 312 313 315 312 317 314 313 311 312
309 309 307 306 307 306 306 304 303 301 301 302 301 299 299 299 299 298 298 298 299 299 301 302 303 304 304 305 311 313 314 313 315 310 312 315 313 311 310 314 314 314 314 312 312 312 312
306 308 307 307 306 306 305 303 302 301 302 303 301 299 299 299 298 298 298 298 300 302 304 303 304 305 305 308 311 312 314 314 315 315 316 313 316 318 317 312 311 311 312 312 311 310 310
306 305 306 307 306 305 304 303 302 300 303 304 303 301 300 298 298 297 297 297 300 303 303 300 301 302 303 305 306 309 312 314 314 316 311 312 316 315 312 312 311 312 313 312 311 310 312
306 306 306 306 305 305 304 304 304 303 304 304 303 302 299 298 297 297 297 298 301 306 305 302 303 304 304 303 304 303 306 311 312 312 312 315 314 311 312 311 312 311 312 312 311 311 312
306 306 306 305 305 306 305 305 305 304 302 303 303 301 298 297 297 298 301 303 301 304 303 301 306 308 309 307 307 306 304 306 310 312 310 312 311 310 311 311 311 312 311 311 311 313 316
304 305 305 305 305 306 306 306 305 304 303 302 301 301 299 297 298 302 304 302 306 306 302 303 310 309 310 309 311 312 308 308 311 311 311 312 312 310 311 312 310 312 311 312 313 314 313
303 303 303 304 303 304 304 304 305 305 304 303 302 301 299 298 298 305 306 307 308 302 299 302 310 311 311 312 312 311 308 310 310 311 311 311 310 311 312 311 310 311 313 313 310 312 316
305 304 304 303 303 302 302 303 303 305 304 303 302 299 299 298 299 303 307 309 304 300 300 303 311 312 311 312 311 312 311 312 312 311 312 312 312 311 311 312 311 312 314 315 316 316 316
304 303 304 304 304 302 302 302 301 302 302 301 300 300 300 299 300 303 307 307 298 299 299 302 304 311 312 311 312 311 312 313 311 310 311 313 312 311 311 312 313 313 314 315 317 316 313
302 302 302 302 303 302 302 303 302 301 301 301 300 299 299 301 300 303 308 305 300 299 302 306 303 302 303 306 311 311 311 312 312 311 314 312 312 309 309 310 312 312 314 312 315 311 314
301 302 303 303 302 303 303 303 303 301 302 301 300 299 299 300 300 302 307 305 304 303 305 305 301 305 303 308 307 308 308 309 310 309 309 312 313 309 309 308 307 312 311 314 314 316 314
299 300 302 303 302 301 302 303 302 301 301 300 301 299 299 299 300 301 305 304 303 304 304 306 306 306 308 309 310 310 310 309 310 309 308 309 310 311 311 310 311 311 312 311 313 312 316
296 298 298 300 300 300 300 302 302 300 300 300 301 300 299 299 300 299 303 302 302 303 303 304 305 306 306 308 307 308 311 311 309 308 308 309 310 311 311 309 308 308 311 312 315 313 313
294 296 297 298 299 301 301 301 301 300 300 300 300 299 299 299 300 299 300 302 302 302 302 303 305 305 305 305 304 306 306 306 305 308 309 309 312 311 311 310 310 311 312 310 310 311 313
294 294 295 297 299 299 300 301 300 300 300 300 299 298 299 301 299 299 299 300 301 301 301 301 303 304 306 307 305 306 309 307 307 308 309 309 310 311 312 310 309 311 310 308 310 312 312
294 294 294 295 297 298 298 299 299 300 300 299 300 298 299 299 299 300 300 300 300 299 302 302 303 302 305 307 307 308 308 307 306 306 308 309 310 309 310 309 309 309 310 310 309 310 311
293 294 294 294 295 297 297 299 299 299 299 299 297 298 297 297 299 299 300 301 301 301 301 303 303 304 303 303 304 304 304 304 305 305 306 305 310 306 309 308 308 309 309 309 309 309 309
292 293 293 294 295 296 296 298 299 300 299 300 299 298 299 299 298 300 300 300 300 301 301 301 302 303 304 304 304 304 304 305 305 307 307 307 308 308 309 308 307 309 308 308 309 309 310
292 293 293 294 295 295 296 298 298 299 299 299 298 298 298 298 299 299 299 299 299 299 300 300 300 302 302 302 303 304 305 305 306 306 306 307 307 308 309 306 310 307 302 303 306 307 305
291 291 292 292 292 293 295 296 297 297 299 299 298 298 297 297 298 298 298 299 299 299 300 300 300 300 300 302 303 303 303 305 305 305 306 306 307 308 309 308 307 306 303 303 305 304 303
291 291 291 292 292 293 292 294 296 297 297 297 297 297 297 296 296 297 297 298 299 298 299 299 299 301 300 302 302 303 302 306 307 306 306 306 307 308 308 308 308 304 300 299 299 303 299
290 291 292 291 292 293 293 294 295 296 297 297 297 296 296 296 296 295 296 296 296 298 299 300 300 301 301 303 304 303 303 304 304 305 307 308 307 308 309 308 306 301 300 298 303 304 298
292 291 291 292 291 292 294 294 295 296 296 296 296 296 296 295 295 295 296 297 298 297 298 298 300 300 301 303 303 304 305 305 306 305 307 308 308 307 306 306 307 299 299 302 300 295 296
292 292 292 291 291 291 293 294 295 295 296 296 296 295 295 295 294 294 294 295 296 297 297 298 300 301 301 303 304 302 304 301 304 306 301 307 307 306 306 306 297 299 297 296 296 295 295

GFSGBSN_850_thetae_132.txt.gz
Theta_e
324 325 326 325 324 325 325 324 324 323 323 322 319 318 317 317 316 314 310 308 307 306 304 303 303 303 304 308 308 306 305 308 311 312 313 313 316 317 318 317 317 318 317 316 316 316 317
322 323 323 323 323 323 323 322 321 320 316 315 313 311 311 311 310 309 307 305 304 303 302 302 302 303 303 308 306 305 306 307 309 313 314 314 315 315 315 316 317 316 316 316 317 317 317
315 315 316 315 313 313 313 312 310 309 308 308 307 307 308 307 307 306 304 303 301 301 301 301 302 301 303 306 305 305 305 306 309 313 313 314 314 313 315 316 315 316 317 318 318 317 317
313 313 312 309 309 308 308 307 307 306 305 305 305 305 305 305 304 303 301 300 300 301 301 301 301 301 306 304 304 305 306 306 305 306 312 314 315 314 315 315 316 317 317 317 317 316 315
310 312 312 310 310 309 308 307 306 305 304 302 302 303 303 302 301 300 300 300 299 300 300 301 301 302 307 305 309 313 313 315 313 314 312 314 315 315 315 317 318 318 316 318 318 315 315
309 310 309 309 308 308 307 306 305 304 303 301 301 300 300 300 300 299 299 299 299 300 301 301 303 305 305 307 311 313 314 315 315 313 313 315 315 317 317 318 316 317 317 317 316 316 315
308 307 309 308 308 306 306 306 305 304 302 301 301 299 299 299 299 299 298 298 302 307 302 306 306 306 306 309 309 312 314 316 315 315 315 315 316 316 316 316 317 316 316 316 316 315 314
308 306 307 309 308 307 306 305 304 302 301 302 302 300 299 299 299 298 297 301 300 301 304 303 301 304 305 304 306 311 314 316 315 314 316 316 316 316 317 317 317 317 317 316 314 313 314
308 307 307 306 307 306 305 304 304 303 302 303 303 300 299 299 299 299 297 298 298 300 307 304 305 306 306 304 304 305 311 313 314 313 315 314 314 314 317 316 316 315 315 314 314 314 314
305 306 307 306 306 306 305 304 304 304 303 303 303 300 299 298 297 298 302 300 301 301 308 307 307 309 310 308 308 308 306 308 311 311 312 313 312 314 314 313 313 314 314 313 313 315 317
305 305 306 307 306 306 305 305 305 305 304 302 301 300 300 297 298 302 302 301 302 305 308 306 310 309 311 310 313 313 308 306 308 310 311 311 313 313 314 314 313 313 313 314 315 316 317
305 305 303 306 306 305 306 306 306 306 304 303 303 302 301 298 298 302 303 306 306 309 304 307 312 314 314 312 313 311 309 310 311 311 312 311 313 314 313 313 313 314 315 315 316 316 315
304 304 303 303 305 305 304 305 305 306 305 304 303 302 300 299 300 305 306 308 308 306 303 306 311 314 314 312 314 315 311 313 312 312 313 312 313 312 313 314 314 314 315 315 315 317 315
303 303 301 304 303 303 303 303 303 304 304 304 302 300 299 298 300 305 307 308 306 302 302 305 308 313 313 313 313 314 315 314 313 313 313 312 312 314 314 314 314 315 315 315 313 313 314
303 304 303 304 305 304 303 303 302 302 303 303 301 301 300 300 300 305 309 308 301 302 303 305 305 304 307 312 312 314 314 314 313 314 313 314 313 312 313 314 314 315 316 314 315 314 316
301 302 303 304 303 304 304 302 302 302 302 301 301 301 300 300 300 302 308 304 303 303 306 306 303 304 304 305 308 310 311 311 312 312 313 313 310 309 312 312 313 314 314 315 316 315 314
300 300 302 302 302 302 303 303 302 302 302 301 301 301 300 299 300 303 307 304 303 305 305 305 304 305 306 307 307 307 307 311 312 310 310 311 312 310 313 312 311 314 314 314 314 314 315
299 300 299 301 302 303 303 303 303 303 302 301 300 302 300 299 302 302 305 304 303 303 304 305 306 306 305 306 306 307 307 310 309 307 306 307 307 310 309 311 312 312 313 314 317 314 316
298 298 298 299 300 300 302 301 303 303 302 301 300 299 299 301 304 303 302 303 303 304 303 304 304 304 304 305 304 304 305 306 307 307 308 309 307 308 306 310 313 313 313 313 313 313 315
295 295 296 297 297 299 300 301 301 303 300 300 300 302 299 300 302 303 302 302 302 302 303 303 304 305 305 305 305 304 306 309 309 308 308 309 311 310 308 307 310 312 312 312 313 314 314
294 294 294 295 297 297 298 300 301 300 301 300 299 302 300 301 301 303 303 301 302 302 302 302 303 304 305 305 305 306 306 306 306 306 306 308 309 309 309 309 309 310 310 310 311 312 314
293 294 294 295 296 296 297 298 299 301 300 300 299 300 300 302 301 301 303 303 301 301 301 301 303 303 304 304 304 304 305 305 305 305 307 308 308 308 309 308 309 309 309 309 309 311 312
292 293 293 294 294 294 295 296 298 299 299 297 298 300 301 301 302 301 302 302 302 302 301 301 302 303 304 304 304 305 305 305 306 307 307 307 308 307 309 308 309 309 309 309 310 310 311
291 292 293 293 293 293 295 295 296 298 300 299 299 300 301 303 303 303 301 301 301 301 302 301 302 303 302 302 302 303 303 304 304 305 305 306 306 307 309 308 311 308 307 307 309 310 311
290 291 292 292 293 293 294 296 296 297 299 299 299 299 300 303 301 302 302 301 300 300 301 300 300 300 300 301 302 302 303 303 304 304 305 306 307 308 308 307 307 307 310 309 308 309 308
290 291 291 292 293 293 294 295 296 296 298 298 298 299 299 301 302 300 301 300 301 301 301 300 300 300 301 302 302 302 302 302 303 307 308 306 306 307 306 306 307 310 306 304 305 308 307
290 291 291 292 292 292 293 294 295 296 297 297 296 298 298 299 299 299 300 301 299 300 300 299 300 301 301 303 304 303 303 302 303 303 306 308 307 308 309 308 307 307 304 303 308 309 304
290 290 290 291 291 292 292 293 293 294 295 297 296 297 298 298 298 298 298 298 298 298 299 299 300 301 302 303 304 304 304 303 304 304 304 305 307 309 309 310 311 304 302 304 304 301 302
291 292 291 291 291 292 292 293 293 295 296 296 296 297 297 296 297 296 297 297 298 298 298 299 299 301 302 303 303 304 305 306 305 306 305 308 309 310 308 309 304 302 302 301 300 301 301

GFSGBSN_850_thetae_135.txt.gz
Theta_e
325 325 325 324 324 323 324 324 324 324 325 324 323 324 322 320 317 316 315 312 310 308 306 305 304 303 305 310 311 311 306 306 309 313 314 314 315 318 319 319 319 319 319 319 318 318 318
326 325 324 324 324 325 326 326 325 324 323 323 323 321 318 315 312 311 310 309 308 305 304 304 303 303 309 310 310 308 305 310 313 314 314 315 316 317 317 318 318 319 319 318 318 319 319
322 324 323 322 321 319 324 323 322 322 322 319 315 311 309 309 309 308 307 306 304 303 303 303 302 302 308 310 309 309 309 310 314 315 314 315 315 315 317 318 317 317 318 319 319 320 320
315 316 317 316 314 313 312 312 311 310 309 308 308 307 306 306 306 306 304 303 302 302 302 302 302 303 309 309 307 307 309 310 310 310 311 316 315 316 317 318 318 319 319 320 320 319 318
312 313 314 312 311 311 310 309 308 307 306 305 304 304 304 304 304 303 302 301 300 301 301 301 304 310 310 308 310 314 314 316 312 312 314 315 316 317 318 318 320 321 321 321 321 319 319
312 311 312 311 310 310 309 308 308 306 305 304 303 302 301 301 301 301 300 300 300 301 302 303 308 308 309 309 312 314 316 317 316 315 315 315 316 318 319 319 321 320 321 321 320 320 318
311 311 311 311 310 309 308 307 307 307 306 305 304 301 300 300 300 300 299 305 309 312 309 310 310 310 308 310 309 312 316 317 316 315 317 318 318 318 318 319 319 319 319 318 318 319 318
310 310 309 309 309 308 307 307 306 305 305 303 302 300 299 299 299 299 299 305 308 308 305 306 306 306 306 307 307 309 315 316 316 317 316 318 320 317 317 318 319 318 318 318 319 318 316
309 309 309 309 309 309 308 307 306 305 304 302 302 301 300 299 299 299 305 305 306 307 308 307 307 307 307 307 307 307 311 313 315 317 316 317 318 316 317 318 318 317 317 318 317 317 317
308 308 308 308 307 308 308 306 305 304 303 302 302 302 300 299 299 305 305 307 306 303 311 311 308 309 309 307 309 307 307 312 313 314 314 315 315 315 315 316 315 315 316 316 315 316 316
307 306 306 307 307 307 306 305 305 304 304 303 303 302 300 298 306 305 309 306 302 308 310 310 310 311 313 310 315 314 311 307 310 313 312 314 314 314 314 315 315 315 315 315 315 316 317
305 306 305 306 306 307 306 305 305 305 305 304 303 302 301 300 300 308 302 305 310 312 309 310 313 313 314 312 315 313 310 310 309 311 312 313 314 315 315 314 314 314 315 316 317 317 318
305 306 305 305 305 306 306 306 306 306 306 304 303 303 302 302 302 303 303 310 309 312 307 309 312 314 316 314 316 315 313 313 314 313 314 314 313 313 313 314 315 315 315 316 316 318 319
302 304 304 305 304 303 306 306 305 306 307 304 303 303 302 302 303 305 308 310 311 307 308 308 310 313 313 314 316 316 314 315 314 314 314 314 315 314 314 314 314 316 315 317 316 317 316
300 302 302 304 303 303 304 305 305 304 304 305 303 302 303 302 299 305 309 310 303 307 306 306 309 311 311 313 314 315 316 314 315 314 313 313 313 314 314 314 314 313 315 315 315 316 316
299 298 301 303 304 302 303 303 304 303 303 304 303 302 304 302 299 304 309 308 305 305 306 306 305 305 306 308 309 311 312 312 313 314 314 313 314 314 313 314 313 314 313 314 317 318 315
297 298 299 301 303 303 304 304 304 303 303 304 303 303 304 301 300 304 309 306 305 305 305 306 305 305 307 307 307 308 309 311 312 312 312 312 313 312 311 311 312 311 314 313 314 313 315
296 297 299 303 302 304 304 305 304 303 303 304 303 304 303 303 303 303 307 305 304 304 305 305 305 306 305 306 307 307 307 310 310 310 309 310 310 310 309 310 311 313 314 314 317 315 315
295 298 298 300 301 301 303 302 303 302 302 302 302 301 302 302 305 306 303 305 305 305 304 305 304 304 305 304 304 305 306 307 307 309 310 310 311 309 308 308 309 310 311 312 311 312 315
297 298 298 298 300 300 301 302 303 301 302 301 301 302 300 302 303 304 304 303 304 303 304 304 304 305 305 304 305 304 305 307 309 308 306 308 308 307 307 307 308 310 312 313 314 316 317
295 296 297 297 299 299 299 300 300 302 302 302 300 302 302 303 303 306 305 304 303 304 303 303 304 305 305 304 305 305 305 306 309 307 307 309 310 309 309 309 309 309 309 309 310 311 312
295 295 295 296 296 298 298 299 300 301 303 301 298 302 303 304 303 305 305 305 305 304 304 304 304 304 305 305 305 306 306 307 307 307 307 307 308 308 307 306 307 307 308 308 309 309 309
293 294 294 294 295 296 297 298 300 299 300 298 299 300 303 304 305 304 306 304 304 304 303 303 304 304 304 305 305 305 306 306 306 307 307 308 308 308 309 308 308 308 309 309 309 309 309
291 292 293 293 293 294 295 296 297 298 299 298 299 301 302 306 306 305 303 303 304 303 304 303 302 303 303 304 304 304 304 304 305 306 306 307 307 308 310 307 309 307 308 309 309 309 309
290 291 292 292 293 293 294 294 294 296 298 298 298 299 300 306 304 304 304 303 302 302 303 302 303 303 303 303 303 304 304 304 305 305 305 306 307 309 309 308 307 307 308 312 310 309 309
291 290 291 292 292 292 293 293 294 295 296 298 297 299 299 302 303 303 304 303 304 304 303 302 301 301 301 302 303 303 303 303 303 304 306 306 306 308 308 307 308 310 307 306 309 312 309
291 290 290 291 291 292 292 293 294 295 296 297 298 298 300 301 301 302 303 304 302 302 303 302 301 301 301 303 303 304 304 303 303 303 305 309 309 309 310 309 308 307 306 306 308 309 307
291 291 290 291 291 292 292 293 294 295 296 297 298 298 298 299 302 302 302 302 301 302 303 301 301 301 302 303 303 304 305 304 305 305 304 305 306 309 309 309 309 307 307 308 308 305 305
289 290 290 291 291 292 292 292 293 294 294 297 297 297 297 298 299 300 301 301 301 301 300 300 301 301 301 303 302 303 304 306 306 307 305 307 307 309 307 308 309 307 307 307 304 305 305